Zermatt, Switzerland 16 day weather forecast

Slopes altitude range 1620 m - 3820m

Number of lifts: 34 Pistes: 200km

In some cases the lift and piste totals shown are for the ski domain (e.g. Three Valleys) rather than individual resort (e.g. Courchevel)

Overview

The 16 day weather forecast is fully updated 4 times every day.

    • Thu 21 JUN 2018
    • Thu 21
    • 14C 16C
    • Fri 22 JUN 2018
    • Fri 22
    • 8C 15C
    • Sat 23 JUN 2018
    • Sat 23
    • 6C 12C
    • Sun 24 JUN 2018
    • Sun 24
    • 7C 10C
    • Mon 25 JUN 2018
    • Mon 25
    • 5C 10C
    • Tue 26 JUN 2018
    • Tue 26
    • 5C 11C
    • Wed 27 JUN 2018
    • Wed 27
    • 8C 13C
    • Thu 28 JUN 2018
    • Thu 28
    • 10C 14C
    • Fri 29 JUN 2018
    • Fri 29
    • 8C 13C
    • Sat 30 JUN 2018
    • Sat 30
    • 9C 15C
    • Sun 01 JUL 2018
    • Sun 01
    • 9C 12C
    • Mon 02 JUL 2018
    • Mon 02
    • 9C 13C
    • Tue 03 JUL 2018
    • Tue 03
    • 8C 19C
    • Wed 04 JUL 2018
    • Wed 04
    • 7C 19C
    • Thu 05 JUL 2018
    • Thu 05
    • 8C 17C
    • Fri 06 JUL 2018
    • Fri 06
    • 8C 19C

Date:

Time Type 0°C level Temp Chill Snow Cloud Speed Gust Dir Press
18:00 4101m 16°C 16_4 0cm 74% 4mph 4mph 1016mB
21:00 4046m 8°C 8_9 0cm 97% 9mph 9mph 1017mB
0:00 3929m 8°C 8_10 0cm 97% 10mph 10mph 1018mB
3:00 3843m 6°C 6_9 0cm 99% 9mph 11mph 1017mB
6:00 3808m 6°C 6_10 0cm 96% 10mph 12mph 1018mB
9:00 3722m 8°C 8_8 0cm 52% 8mph 10mph 1018mB
12:00 3699m 15°C 15_8 0cm 74% 8mph 8mph 1017mB
15:00 3681m 15°C 15_6 0cm 99% 6mph 6mph 1017mB
18:00 3429m 15°C 15_4 0cm 50% 4mph 5mph 1019mB
21:00 3499m 3°C 3_7 0cm 0% 7mph 8mph 1023mB
0:00 3273m 1°C 1_5 0cm 0% 5mph 6mph 1024mB
3:00 3278m 1°C 1_5 0cm 0% 5mph 6mph 1023mB
6:00 3331m 1°C 1_2 0cm 0% 2mph 3mph 1023mB
9:00 3270m 6°C 6_2 0cm 0% 2mph 4mph 1022mB
12:00 3410m 12°C 12_3 0cm 0% 3mph 5mph 1020mB
15:00 3500m 12°C 12_2 0cm 0% 2mph 5mph 1019mB
18:00 3559m 12°C 12_2 0cm 20% 2mph 4mph 1019mB
21:00 3539m 4°C 4_6 0cm 93% 6mph 7mph 1021mB
0:00 3467m 3°C 3_6 0cm 78% 6mph 7mph 1020mB
3:00 3152m 3°C 3_6 1cm 100% 6mph 7mph 1019mB
6:00 3147m 3°C 3_3 1cm 80% 3mph 5mph 1019mB
9:00 3121m 7°C 7_3 0cm 0% 3mph 4mph 1018mB
12:00 3148m 10°C 10_3 0cm 41% 3mph 4mph 1017mB
15:00 3204m 8°C 8_3 0cm 96% 3mph 4mph 1017mB
18:00 3137m 8°C 8_3 0cm 95% 3mph 4mph 1017mB
21:00 3040m 3°C 3_3 0cm 54% 3mph 3mph 1019mB
0:00 2950m 2°C 2_3 0cm 54% 3mph 4mph 1019mB
3:00 3031m 1°C 1_5 0cm 79% 5mph 5mph 1018mB
6:00 3141m 1°C 1_3 0cm 86% 3mph 4mph 1018mB
9:00 3117m 5°C 5_4 0cm 0% 4mph 3mph 1017mB
12:00 3263m 10°C 10_4 0cm 8% 4mph 3mph 1016mB
15:00 3406m 10°C 10_3 0cm 51% 3mph 3mph 1015mB
18:00 3334m 10°C 10_2 0cm 49% 2mph 3mph 1017mB
21:00 3221m 2°C 2_1 0cm 38% 1mph 2mph 1019mB
0:00 3130m 2°C 2_3 0cm 59% 3mph 4mph 1019mB
3:00 3078m 5°C 5_2 0cm 95% 2mph 3mph 1018mB
6:00 3154m 4°C 4_2 0cm 85% 2mph 2mph 1018mB
9:00 3134m 5°C 5_4 0cm 74% 4mph 3mph 1017mB
12:00 3346m 11°C 11_6 0cm 69% 6mph 3mph 1016mB
15:00 3519m 11°C 11_4 0cm 72% 4mph 3mph 1016mB
18:00 3584m 11°C 11_2 0cm 83% 2mph 3mph 1017mB
21:00 3558m 6°C 6_1 0cm 92% 1mph 2mph 1019mB
0:00 3529m 5°C 5_3 0cm 87% 3mph 4mph 1019mB
3:00 3644m 5°C 5_4 0cm 71% 4mph 5mph 1019mB
6:00 3717m 4°C 4_3 0cm 54% 3mph 4mph 1018mB
9:00 3584m 8°C 8_3 0cm 32% 3mph 3mph 1018mB
12:00 3689m 13°C 13_4 0cm 53% 4mph 2mph 1016mB
15:00 3818m 13°C 13_3 0cm 79% 3mph 2mph 1015mB
18:00 3824m 13°C 13_2 0cm 81% 2mph 2mph 1016mB
21:00 3771m 8°C 8_3 0cm 86% 3mph 3mph 1018mB
0:00 3830m 5°C 5_4 0cm 67% 4mph 4mph 1017mB
3:00 3855m 5°C 5_5 0cm 18% 5mph 6mph 1017mB
6:00 3895m 5°C 5_3 0cm 9% 3mph 4mph 1015mB
9:00 3805m 10°C 10_3 0cm 0% 3mph 3mph 1014mB
12:00 3795m 14°C 14_3 0cm 17% 3mph 2mph 1012mB
15:00 3867m 14°C 14_2 0cm 91% 2mph 2mph 1011mB
18:00 3776m 14°C 14_3 0cm 81% 3mph 3mph 1011mB
21:00 3755m 7°C 7_6 0cm 38% 6mph 6mph 1012mB
0:00 3676m 6°C 6_5 0cm 33% 5mph 6mph 1012mB
3:00 3594m 4°C 4_5 0cm 19% 5mph 6mph 1011mB
6:00 3584m 4°C 4_1 0cm 15% 1mph 2mph 1011mB
9:00 3513m 8°C 8_3 0cm 15% 3mph 2mph 1009mB
12:00 3672m 13°C 13_2 0cm 28% 2mph 2mph 1007mB
15:00 3761m 13°C 13_2 0cm 48% 2mph 2mph 1006mB
18:00 3752m 13°C 13_1 0cm 44% 1mph 2mph 1007mB
21:00 3778m 6°C 6_6 0cm 9% 6mph 7mph 1009mB
0:00 3783m 5°C 5_7 0cm 5% 7mph 7mph 1009mB
3:00 3820m 4°C 4_7 0cm 77% 7mph 8mph 1009mB
6:00 3827m 4°C 4_5 0cm 82% 5mph 5mph 1009mB
9:00 3798m 9°C 9_2 0cm 8% 2mph 3mph 1008mB
12:00 3771m 15°C 15_4 0cm 6% 4mph 4mph 1006mB
15:00 3938m 15°C 15_4 0cm 77% 4mph 4mph 1006mB
18:00 3987m 15°C 15_1 0cm 70% 1mph 3mph 1006mB
21:00 3987m 7°C 7_4 0cm 14% 4mph 5mph 1008mB
0:00 4019m 6°C 6_5 0cm 15% 5mph 5mph 1008mB
3:00 3985m 5°C 5_4 0cm 23% 4mph 5mph 1008mB
6:00 3839m 4°C 4_1 0cm 23% 1mph 1mph 1007mB
9:00 3825m 9°C 9_5 0cm 45% 5mph 5mph 1005mB
12:00 3844m 12°C 12_4 0cm 61% 4mph 4mph 1004mB
Morning 2.41146mm 7.5 3610m 9°C 9_8 0cm 100% 8mph 13mph 1007mB
Afternoon 1.10938mm 1.75 3693m 13°C 13_8 0cm 99% 8mph 13mph 1008mB
Morning 1.14583mm 11.625 3807m 9°C 9_9 0cm 92% 9mph 15mph 1012mB
Afternoon 0.00520833mm 0 3726m 19°C 19_5 0cm 33% 5mph 7mph 1012mB
Morning 0.0625mm 0.75 3941m 9°C 9_9 0cm 39% 9mph 14mph 1017mB
Afternoon 0mm 0 3723m 19°C 19_2 0cm 16% 2mph 4mph 1016mB
Morning 0.03125mm 0.375 3905m 9°C 9_5 0cm 9% 5mph 6mph 1020mB
Afternoon 0.114583mm 1.25 3961m 17°C 17_5 0cm 13% 5mph 4mph 1018mB
Morning 1.41667mm 16.875 4061m 10°C 10_4 0cm 89% 4mph 5mph 1021mB
Afternoon 0.0416667mm 0.5 4220m 19°C 19_5 0cm 15% 5mph 4mph 1019mB
Morning 0.838542mm 10.0625 4393m 11°C 11_4 0cm 23% 4mph 4mph 1022mB
Afternoon 0.0416667mm 0.5 4359m 22°C 22_2 0cm 4% 2mph 4mph 1021mB

16 day outlook at a glance

Forecast issued: 21/06/2018 22:59:16

Chat

Your comments and questions. In a resort? Let us know what it's like!


Characters left 250

For terms and conditions see Readers Comments on the Cookie and privacy policy page.